Tracking 19242 objects as of 15-Aug-2018
HD Live streaming from Space Station
objects crossing your sky now

CZ-4B DEB

Track CZ-4B DEB now!
10-day predictions


NORAD ID: 34223
Int'l Code: 2002-024H
Perigee: 798.0 km
Apogee: 990.5 km
Inclination: 99.2 °
Period: 102.7 minutes
Semi major axis: 7265 km
RCS: 0.0196 m2 (small)
Launch date: May 15, 2002
Source: People's Republic of China (PRC)
Launch site: Taiyaun Space Center, China (TSC)

Note: This is SATELLITE DEBRIS
aabbcc
Your satellite tracking list
Your tracking list is empty




NASA's NSSDC Master Catalog

Two Line Element Set (TLE):
1 34223U 02024H   18225.73579502 +.00000290 +00000-0 +20409-3 0  9997
2 34223 099.1848 208.8175 0132504 348.9207 010.9048 14.01929076810947
Source of the keplerian elements: AFSPC